Regional Weather Roundup
Issued by NWS

Home | Current Version | Previous Version | Graphics & Text | Print | Product List | Glossary On
Versions: 1 2 3 4 5 6 7 8 9 10 11 12 13 14 15 16 17 18 19 20 21 22 23 24 25 26 27 28 29 30 31 32 33 34 35 36 37 38 39 40 41 42 43 44 45 46 47 48 49 50
708
ASUS43 KLSX 301307
RWRMO

WEATHER SUMMARY FOR MISSOURI
NATIONAL WEATHER SERVICE SPRINGFIELD MO
800 AM CDT TUE AUG 30 2016

NOTE: "FAIR" INDICATES FEW OR NO CLOUDS BELOW 12,000 FEET WITH NO
       SIGNIFICANT WEATHER AND/OR OBSTRUCTIONS TO VISIBILITY.
       CURRENT SKY AND/OR WEATHER CONDITIONS ARE NOT AVAILABLE FOR
       CHILLICOTHE AND FARMINGTON.

MOZ001>031-035>038-043-044-053-054-301400-
...NORTHERN AND WESTERN MISSOURI...

CITY           SKY/WX    TMP DP  RH WIND       PRES   REMARKS
KANSAS CTY INT PTSUNNY   71  68  90 CALM      30.15R
KANSAS C DTWN  PTSUNNY   72  69  90 CALM      30.14R
LEE`S SUMMIT   SUNNY     71  68  90 E3        30.15S
ST JOSEPH      MOSUNNY   69  69 100 CALM      30.16R
CHILLICOTHE      N/A     72  71  97 N3        30.16F
KIRKSVILLE     TSTM      70  69  97 NE8       30.19F FOG

$$
MOZ066>068-077>081-088>096-101>105-301400-
...SOUTHWEST MISSOURI...

CITY           SKY/WX    TMP DP  RH WIND       PRES   REMARKS
SPRINGFIELD    SUNNY     74  70  87 NW3       30.16R
JOPLIN         SUNNY     74  69  85 CALM      30.15S
BRANSON        MOSUNNY   72  72 100 CALM      30.17R FOG

$$
MOZ032>034-039>042-045>050-055>058-069>072-301400-
...CENTRAL MISSOURI...

CITY           SKY/WX    TMP DP  RH WIND       PRES   REMARKS
COLUMBIA       PTSUNNY   74  73  97 N6        30.16S FOG
JEFFERSON CITY CLOUDY    73  72  96 NW3       30.15R FOG
ROLLA          SUNNY     77  72  84 CALM      30.16R
SEDALIA        MOSUNNY   74  71  91 E7        30.17S
WHITEMAN AFB   PTSUNNY   71  71 100 E1        30.15R
OSAGE BEACH    SUNNY     74  71  91 CALM      30.16S

$$
MOZ051-052-059>065-301400-
...EAST CENTRAL MISSOURI...

CITY           SKY/WX    TMP DP  RH WIND       PRES   REMARKS
ST LOUIS INTL  MOSUNNY   80  74  81 E3        30.15R
SPIRIT OF STL  SUNNY     75  74  96 CALM      30.13S FOG
ST CHARLES     SUNNY     77  76  96 CALM      30.13S FOG

$$
MOZ072>076-082>087-097>100-106>115-301400-
...SOUTH CENTRAL AND SOUTHEAST MISSOURI...

CITY           SKY/WX    TMP DP  RH WIND       PRES   REMARKS
CAPE GIRARDEAU SUNNY     75  73  93 CALM      30.12R FOG
FARMINGTON     SUNNY     73  71  93 CALM      30.17R
POPLAR BLUFF   SUNNY     77  74  90 N3        30.11R
WEST PLAINS    SUNNY     75  71  87 CALM      30.18R

$$



USA.gov is the U.S. government's official web portal to all federal, state and local government web resources and services.